Temperature
22 23 23 23 23 23 23 23 22 22 22 22 22 22 22 21 20 20 20 20 19 19 18 18 18 17 17 17 17 17 17 16 16 16 16 16 16 16 16 15 15 15 15 15
23 22 23 23 22 22 23 23 22 22 22 22 22 22 22 21 21 20 20 20 20 19 19 18 17 17 17 17 17 17 16 16 16 16 16 16 16 15 15 15 15 15 15 15
23 23 23 22 22 22 23 23 23 22 22 22 22 22 22 22 21 20 20 20 20 19 19 18 18 17 17 17 17 16 16 16 16 16 16 16 16 15 15 15 15 15 15 15
22 22 22 22 22 23 22 22 22 22 22 22 22 22 23 22 22 21 20 20 19 19 19 18 18 17 17 17 17 16 16 16 16 16 16 16 16 15 15 15 15 15 15 15
22 22 22 22 22 22 22 22 22 22 22 22 22 22 23 22 22 21 21 20 19 19 18 18 18 17 17 17 17 16 16 16 16 16 16 16 15 15 15 15 15 15 15 14
22 21 22 22 22 22 22 22 22 22 22 22 22 22 22 23 22 22 22 20 19 19 18 18 17 17 17 17 17 16 16 16 16 16 16 15 15 15 15 15 15 15 14 14
22 22 22 22 22 22 22 22 21 21 22 22 22 22 22 23 23 22 22 21 20 19 18 18 17 17 17 17 17 16 16 16 16 16 16 16 15 15 15 15 15 14 14 14
21 21 22 22 22 22 22 22 21 21 21 22 22 22 23 22 21 21 20 20 19 19 18 18 17 17 17 17 16 16 16 16 16 16 16 16 15 15 15 15 14 14 14 14
22 22 22 21 22 22 22 22 22 22 22 21 22 23 22 22 22 21 20 20 19 18 18 17 17 17 17 17 16 16 16 16 16 16 16 15 15 15 15 14 14 14 14 14
22 21 21 21 21 21 22 22 22 21 21 21 22 22 23 22 22 21 21 20 19 18 18 17 17 17 17 17 16 16 16 16 16 16 15 15 15 15 15 14 14 14 14 14
21 21 21 21 21 21 21 21 22 22 21 21 21 22 22 22 22 21 21 19 19 18 17 17 17 17 17 16 16 16 16 16 16 16 15 15 15 15 14 14 14 14 14 14
21 21 21 21 21 21 22 22 22 21 21 21 21 22 22 21 21 20 20 19 18 17 17 17 17 17 16 16 16 16 16 16 16 16 15 15 15 15 14 14 14 14 14 14
20 20 20 21 21 20 21 21 21 21 21 21 20 21 21 21 20 19 19 18 18 17 17 17 16 16 16 16 16 16 16 16 16 16 15 15 15 15 15 14 14 14 14 14
19 20 20 20 21 21 20 20 20 21 21 21 21 21 21 21 20 19 19 18 18 17 17 16 16 16 16 16 16 16 16 16 16 16 15 15 15 15 15 14 14 14 14 14
19 20 20 20 20 20 20 20 20 20 21 21 21 21 21 21 20 19 18 18 17 17 16 16 16 16 16 16 16 15 15 16 15 15 15 15 15 15 14 14 14 14 14 13
19 19 19 19 19 19 19 20 20 20 20 20 21 21 21 20 19 19 18 17 17 17 16 16 16 16 15 15 15 15 15 15 15 15 15 15 15 14 14 14 14 14 13 13
18 18 18 19 19 19 19 20 20 20 20 20 20 20 20 20 19 18 18 17 17 16 16 16 15 15 15 15 15 15 15 15 15 15 15 14 14 14 14 14 14 13 13 13
18 18 18 18 18 18 20 20 20 19 19 20 20 20 19 19 18 17 17 17 17 16 16 15 15 15 15 15 15 15 15 15 15 15 14 14 14 14 14 14 13 13 13 13
17 17 17 18 18 19 19 19 19 19 19 19 19 19 18 18 17 18 17 16 16 15 15 15 15 15 15 15 15 15 15 15 14 14 14 14 14 14 14 13 13 13 13 13
16 17 17 17 17 18 19 19 18 18 18 18 18 18 18 17 19 19 17 16 15 15 15 15 15 15 15 15 15 14 14 14 14 14 14 14 14 14 13 13 13 13 13 12
15 16 16 17 17 18 18 17 17 18 18 17 17 17 17 17 18 17 16 15 15 15 15 15 14 15 15 15 14 14 14 14 14 14 14 14 14 14 13 13 13 13 12 12
16 16 16 17 16 17 17 17 17 18 17 16 16 16 16 16 15 15 15 15 14 14 14 14 14 14 14 14 14 13 14 14 14 14 14 13 13 13 13 13 13 12 12 12
16 16 17 17 17 16 16 16 16 15 16 15 15 15 15 15 15 14 14 14 14 14 14 14 14 14 14 14 14 13 13 14 14 14 14 13 13 13 13 13 12 12 12 12
15 14 15 16 16 15 15 14 14 14 14 14 14 14 14 14 14 14 14 14 13 13 13 13 13 13 13 13 13 13 13 13 13 13 13 13 13 12 12 12 12 12 11 11
14 14 15 15 16 15 14 14 14 14 13 13 13 13 13 13 13 13 13 13 13 13 13 13 13 13 13 13 13 13 13 13 13 13 13 12 12 12 12 12 12 12 12 12
13 14 14 15 16 15 15 14 13 13 13 13 13 13 13 13 12 12 13 12 12 12 13 13 12 12 12 12 12 13 13 13 12 12 12 12 12 12 12 12 12 12 11 11
Wind_Speed
3 4 4 4 4 2 2 3 2 1 1 3 4 3 3 5 5 5 6 6 6 7 6 6 6 7 7 6 5 5 5 5 4 4 3 3 3 2 2 2 2 2 2 2
5 4 3 2 3 4 4 4 3 1 1 2 3 4 4 5 7 7 6 7 7 7 7 7 7 7 7 7 6 5 4 4 4 3 3 2 2 2 2 2 2 2 2 1
5 1 2 5 5 5 5 5 3 2 1 3 3 4 5 5 6 6 6 6 7 8 9 9 9 8 8 8 7 5 5 5 4 4 3 4 3 3 2 2 2 2 2 2
4 2 3 4 4 5 5 2 3 4 4 2 3 3 3 5 6 6 7 7 7 8 9 9 9 9 9 8 7 7 6 6 6 5 5 4 3 3 2 2 2 2 2 2
3 3 4 5 3 4 2 1 3 5 6 6 5 5 2 5 5 6 7 7 7 7 8 8 9 9 9 8 7 7 7 6 6 6 5 5 4 3 3 3 3 2 2 2
3 2 3 3 2 3 3 3 3 5 6 6 5 6 2 3 4 4 6 7 7 7 8 8 7 7 7 7 7 7 7 6 6 6 6 5 5 4 4 3 3 2 2 2
5 5 3 3 4 5 5 5 3 5 5 3 1 4 2 1 1 3 3 5 6 7 7 8 8 7 6 7 8 8 8 7 7 6 6 6 5 5 4 4 3 3 2 2
6 6 5 4 5 5 7 7 4 3 3 2 3 4 1 1 1 2 2 3 5 6 6 7 7 7 7 7 8 8 9 8 7 7 6 5 5 4 3 4 3 3 2 2
4 4 3 3 3 5 6 7 6 5 4 4 3 2 2 2 1 0 1 3 4 5 6 6 7 7 7 7 8 8 9 8 8 7 7 6 5 5 4 4 4 3 2 2
4 4 3 3 4 3 4 4 5 5 4 4 4 4 2 1 1 1 2 3 4 4 4 5 5 6 6 6 7 8 8 8 8 8 7 5 5 5 5 4 4 4 3 3
6 5 4 5 6 6 5 6 6 5 5 4 3 1 2 1 1 0 1 2 3 3 3 3 4 5 5 5 6 7 7 8 8 9 8 8 6 6 6 5 5 4 4 4
5 5 5 6 4 4 7 7 8 6 5 5 5 1 3 1 2 1 0 2 2 2 2 2 2 3 4 5 5 7 7 8 8 8 9 8 7 7 6 5 5 5 5 4
4 5 6 6 6 6 6 7 8 8 6 7 7 3 3 1 1 0 0 1 2 2 1 1 1 2 3 4 5 6 7 7 8 8 9 8 8 8 7 6 6 5 5 5
4 6 7 6 2 4 7 8 9 10 8 9 10 8 3 2 2 2 1 1 1 2 2 1 1 2 3 4 4 5 6 6 7 8 8 9 9 8 7 7 6 6 6 5
4 7 7 7 5 5 8 9 10 12 12 11 10 9 6 4 4 3 3 2 2 2 2 2 2 2 3 4 4 4 5 6 7 8 8 8 8 8 7 7 7 6 6 5
3 6 6 8 7 8 10 11 11 12 12 13 12 10 6 4 4 4 4 3 3 3 3 3 3 3 3 4 4 5 6 6 7 8 8 7 7 7 7 7 7 6 6 6
4 5 6 8 6 8 12 11 12 10 10 11 12 9 5 4 5 5 4 4 5 4 4 4 4 4 4 4 4 5 6 6 7 7 7 7 8 7 7 7 7 6 7 7
6 7 5 6 7 11 5 2 7 9 9 9 8 6 5 5 5 5 5 5 5 5 5 4 4 4 4 4 4 5 5 6 7 8 7 7 8 8 7 7 7 7 7 6
8 7 6 6 9 9 6 4 5 7 7 7 8 7 5 5 5 6 3 4 4 4 4 4 4 4 4 4 4 4 5 6 7 8 8 8 8 8 8 8 8 7 7 6
7 9 8 7 8 8 3 2 3 6 7 4 5 5 4 4 6 4 1 3 4 4 3 3 4 4 3 3 3 4 5 6 7 7 7 7 8 9 9 9 8 7 6 6
7 8 11 12 10 8 1 2 4 6 2 1 3 4 5 6 6 4 3 4 4 4 4 3 3 3 3 3 4 4 5 5 6 6 6 6 7 8 8 8 7 7 7 7
7 7 9 9 10 7 2 4 5 2 3 2 3 4 5 6 5 4 4 4 4 4 4 3 3 3 3 3 4 4 4 4 4 5 5 6 7 7 7 7 7 7 7 7
7 6 5 6 5 1 2 3 2 3 4 4 4 4 5 6 6 5 5 5 5 5 4 3 3 3 3 4 4 4 3 3 4 5 5 5 6 6 6 7 7 7 7 6
5 5 7 6 7 6 5 5 6 5 6 6 6 6 6 7 6 6 6 6 5 5 4 4 4 4 4 4 4 4 3 3 4 5 5 5 6 6 6 6 6 6 7 7
6 5 7 10 8 7 7 7 6 6 6 7 7 6 7 7 7 7 7 7 6 5 4 4 4 4 4 4 4 4 4 4 4 5 5 5 5 5 5 6 5 7 7 7
8 9 9 8 7 7 7 6 7 7 8 8 7 7 7 7 7 7 7 6 6 5 5 5 5 5 4 4 4 4 4 4 5 5 5 4 4 4 5 5 4 2 4 4
Wind_Direction
182 202 203 201 215 260 224 207 202 173 180 227 229 230 210 195 205 210 207 202 197 191 181 177 179 178 175 173 172 164 169 169 169 164 162 155 146 130 101 82 74 76 78 94
187 210 226 206 193 208 210 212 211 166 160 242 249 254 232 209 214 220 219 210 204 195 185 182 184 186 187 181 175 172 179 176 175 173 166 156 136 137 116 100 79 75 84 93
205 140 177 190 195 210 223 239 239 241 217 220 262 241 210 204 211 216 222 220 210 203 197 189 189 193 192 190 183 184 188 181 178 171 160 149 143 157 160 149 118 77 75 78
220 210 198 203 211 229 230 240 241 237 249 240 250 272 202 197 204 213 218 216 215 208 203 196 192 195 195 195 187 191 190 189 182 178 177 173 174 173 168 152 137 131 105 99
196 198 212 219 224 236 246 207 224 242 257 261 241 261 213 189 218 221 216 213 210 205 202 196 195 198 199 193 190 193 189 189 185 187 183 193 187 166 148 135 141 147 123 111
208 209 248 245 229 215 174 184 201 229 249 253 244 245 236 193 230 225 209 207 204 199 197 195 189 188 193 191 190 192 192 188 187 191 193 197 186 177 161 155 153 154 139 127
202 204 204 214 195 185 210 222 225 222 221 234 198 242 242 66 276 261 227 202 193 189 190 190 187 186 190 192 193 192 191 188 188 194 198 193 188 190 181 171 171 177 164 152
212 208 195 204 221 212 213 229 243 259 256 232 199 236 163 102 318 297 240 188 182 182 186 191 194 193 195 194 194 193 193 191 187 191 195 195 184 189 181 176 178 185 174 161
226 211 167 195 227 226 212 226 251 268 271 265 228 218 212 192 221 211 129 144 165 176 185 192 194 194 194 194 195 196 194 193 190 190 188 192 189 185 183 185 179 180 180 162
247 232 194 189 195 219 246 226 221 237 255 250 239 237 243 189 200 106 122 139 151 167 181 191 197 196 194 195 198 197 195 195 194 191 186 183 189 187 190 186 183 182 178 170
238 234 201 200 220 217 200 212 230 235 247 263 260 207 36 340 314 238 131 137 142 154 173 187 199 195 193 192 193 195 195 196 195 193 188 186 188 189 188 189 184 183 180 180
223 244 234 218 224 261 236 230 226 235 235 245 268 255 81 20 3 344 124 139 142 151 157 164 176 185 192 194 199 200 198 198 198 196 193 191 186 186 191 191 187 188 185 186
205 234 231 211 202 205 224 229 234 242 247 241 246 231 110 37 327 300 228 168 154 163 160 153 162 185 192 200 207 208 204 202 200 197 195 192 191 191 192 193 191 191 190 189
230 236 245 250 260 213 225 226 229 234 242 245 246 257 247 261 265 268 255 234 205 197 186 184 196 208 210 210 211 211 209 205 201 197 196 197 197 194 193 194 193 195 193 193
235 246 247 258 263 249 246 240 232 237 245 252 256 259 270 275 271 266 256 241 223 216 216 219 229 229 226 222 218 215 214 204 200 198 199 200 197 192 193 194 193 193 195 201
232 250 251 247 241 248 251 247 242 243 247 249 254 257 264 270 263 254 249 237 236 234 233 240 245 242 232 225 222 218 213 206 200 201 200 194 193 191 192 196 197 193 195 202
209 234 249 252 239 253 248 239 233 234 238 243 250 256 256 253 250 249 254 245 243 246 250 251 253 252 246 235 222 219 216 207 202 202 197 193 194 192 194 196 196 195 199 202
226 230 242 256 244 243 243 201 225 234 241 242 252 258 255 262 262 256 255 251 254 258 260 261 261 257 257 246 229 218 213 208 205 202 196 195 196 194 197 200 199 202 203 200
228 223 231 240 245 255 238 222 219 227 244 238 240 249 256 270 251 238 233 252 268 266 265 266 265 259 251 239 228 214 210 208 207 206 202 196 196 196 197 200 202 204 203 202
209 221 230 234 243 246 227 157 221 233 238 222 233 245 254 256 250 251 279 264 268 271 266 267 267 255 240 228 215 209 208 208 210 210 209 200 198 198 201 203 202 202 203 206
200 211 224 234 243 251 244 182 195 223 244 154 236 249 247 247 272 291 279 268 263 264 267 262 256 249 237 224 214 216 214 219 218 212 208 202 200 201 204 203 201 199 200 204
214 216 220 227 236 240 155 177 210 262 1 310 273 270 267 271 283 277 269 267 260 259 261 252 247 249 238 223 218 220 225 228 218 204 204 204 203 200 198 196 199 201 200 204
224 233 237 230 239 337 177 208 258 303 295 293 283 283 280 279 281 279 273 268 262 257 254 249 243 245 240 229 225 227 225 221 211 200 203 204 202 201 198 195 197 200 201 208
229 242 238 240 240 244 250 256 271 279 284 295 288 280 275 275 279 279 276 270 264 254 248 246 241 237 235 228 227 231 221 216 210 203 202 200 200 200 200 201 203 203 205 210
245 235 241 244 251 259 254 251 263 275 281 286 286 280 277 276 274 274 275 271 263 251 247 244 244 242 241 231 224 223 222 215 211 203 200 201 203 199 201 203 210 213 216 217
237 234 241 252 255 255 262 265 269 275 280 283 282 283 282 277 274 275 273 269 263 254 247 243 244 242 235 228 223 219 222 220 213 207 202 201 202 200 201 203 207 218 242 219
Height
1527 1526 1526 1525 1525 1526 1526 1528 1531 1530 1531 1532 1532 1533 1534 1537 1538 1539 1539 1540 1542 1544 1546 1547 1548 1550 1551 1552 1554 1555 1556 1557 1558 1559 1560 1561 1561 1561 1562 1562 1562 1562 1562 1563
1526 1526 1525 1526 1527 1527 1527 1529 1530 1530 1531 1531 1531 1531 1531 1533 1535 1536 1537 1538 1540 1542 1544 1546 1547 1548 1550 1551 1552 1554 1555 1556 1557 1558 1559 1560 1560 1561 1561 1562 1562 1562 1562 1563
1524 1525 1526 1526 1527 1528 1528 1528 1528 1531 1531 1530 1531 1530 1529 1530 1533 1535 1536 1537 1538 1540 1542 1544 1545 1547 1548 1550 1551 1553 1554 1555 1556 1557 1558 1559 1560 1560 1561 1561 1562 1562 1562 1562
1524 1525 1526 1526 1526 1526 1529 1527 1528 1530 1531 1531 1531 1532 1525 1525 1529 1531 1533 1534 1536 1537 1540 1542 1543 1545 1547 1548 1550 1552 1553 1554 1556 1557 1558 1558 1559 1560 1561 1561 1561 1561 1562 1562
1524 1525 1526 1527 1526 1526 1527 1527 1528 1528 1529 1529 1528 1530 1523 1522 1526 1527 1529 1531 1533 1535 1537 1539 1541 1543 1545 1547 1548 1550 1552 1553 1554 1556 1557 1558 1559 1559 1560 1560 1561 1561 1561 1562
1524 1526 1526 1525 1526 1527 1527 1528 1528 1527 1527 1533 1526 1528 1525 1519 1521 1521 1525 1528 1530 1532 1534 1537 1539 1541 1543 1545 1546 1548 1550 1551 1553 1554 1555 1557 1558 1558 1559 1560 1560 1561 1561 1561
1525 1524 1525 1526 1526 1527 1526 1529 1535 1535 1534 1530 1524 1526 1523 1517 1519 1520 1522 1525 1527 1530 1532 1534 1537 1538 1540 1542 1544 1546 1548 1549 1551 1552 1554 1556 1556 1558 1559 1559 1560 1561 1561 1561
1525 1526 1523 1524 1523 1524 1524 1526 1535 1540 1535 1526 1525 1524 1518 1518 1520 1521 1522 1524 1526 1528 1530 1532 1534 1536 1538 1540 1541 1543 1545 1547 1549 1551 1552 1554 1555 1556 1557 1558 1559 1560 1560 1560
1521 1523 1521 1523 1523 1522 1524 1524 1522 1527 1528 1531 1522 1518 1516 1517 1518 1520 1521 1523 1524 1526 1528 1530 1532 1534 1536 1537 1539 1541 1543 1545 1547 1549 1551 1552 1554 1555 1556 1557 1558 1558 1559 1560
1518 1523 1521 1522 1523 1524 1522 1521 1524 1528 1535 1534 1525 1521 1517 1516 1517 1519 1520 1522 1524 1526 1527 1529 1530 1532 1534 1535 1537 1539 1541 1543 1545 1547 1549 1550 1552 1553 1555 1556 1556 1557 1558 1559
1519 1521 1523 1522 1521 1521 1523 1524 1522 1523 1525 1531 1530 1523 1513 1515 1516 1518 1520 1522 1524 1525 1527 1528 1529 1530 1532 1533 1535 1537 1539 1541 1543 1545 1547 1548 1550 1552 1553 1554 1555 1556 1557 1557
1520 1519 1520 1519 1519 1519 1518 1518 1520 1527 1526 1524 1526 1524 1515 1516 1518 1519 1520 1522 1524 1525 1526 1527 1528 1529 1530 1532 1533 1535 1537 1539 1540 1542 1544 1546 1548 1549 1551 1552 1553 1555 1555 1556
1521 1520 1522 1522 1523 1521 1520 1519 1518 1519 1521 1523 1527 1524 1516 1517 1518 1519 1520 1521 1523 1524 1525 1526 1526 1527 1528 1530 1531 1533 1535 1536 1538 1540 1542 1544 1545 1547 1549 1550 1551 1552 1553 1554
1522 1518 1519 1522 1517 1516 1519 1519 1519 1519 1521 1520 1518 1515 1514 1515 1517 1519 1520 1521 1522 1523 1524 1524 1525 1526 1527 1528 1529 1530 1532 1534 1535 1537 1539 1541 1543 1545 1546 1548 1549 1550 1551 1552
1521 1517 1515 1515 1515 1516 1516 1517 1517 1517 1514 1516 1513 1513 1512 1514 1517 1518 1519 1520 1521 1522 1523 1523 1524 1524 1525 1526 1526 1528 1529 1531 1532 1534 1536 1538 1540 1542 1543 1545 1546 1547 1548 1549
1520 1518 1517 1516 1515 1516 1516 1514 1514 1514 1513 1512 1511 1511 1512 1514 1516 1518 1518 1519 1520 1520 1521 1521 1522 1522 1522 1523 1524 1525 1526 1527 1529 1531 1533 1535 1537 1538 1540 1542 1543 1544 1545 1546
1519 1518 1519 1515 1514 1515 1513 1508 1509 1511 1510 1510 1510 1509 1511 1513 1514 1515 1516 1517 1518 1518 1519 1519 1519 1520 1520 1520 1521 1522 1523 1524 1526 1528 1530 1531 1534 1535 1537 1539 1540 1541 1542 1543
1518 1517 1517 1516 1516 1520 1505 1503 1505 1507 1507 1508 1508 1509 1511 1512 1513 1514 1514 1515 1515 1516 1516 1517 1517 1517 1517 1518 1518 1519 1520 1521 1523 1525 1526 1528 1530 1532 1534 1535 1537 1538 1539 1540
1517 1517 1517 1516 1514 1507 1503 1504 1505 1506 1506 1505 1507 1508 1510 1511 1511 1511 1512 1513 1513 1514 1514 1514 1514 1515 1515 1515 1515 1516 1517 1518 1520 1521 1523 1525 1527 1528 1530 1531 1533 1534 1536 1537
1517 1515 1516 1515 1515 1510 1500 1502 1504 1506 1505 1504 1505 1506 1508 1509 1506 1507 1509 1510 1511 1511 1511 1511 1511 1511 1512 1512 1512 1513 1514 1515 1516 1518 1520 1521 1523 1525 1526 1528 1529 1531 1532 1533
1514 1514 1513 1511 1509 1500 1500 1503 1504 1508 1502 1503 1504 1505 1506 1506 1506 1507 1507 1508 1508 1508 1508 1508 1508 1509 1509 1509 1510 1510 1511 1512 1513 1514 1516 1518 1519 1521 1523 1524 1526 1527 1528 1530
1506 1507 1507 1506 1507 1503 1500 1502 1502 1501 1502 1503 1503 1504 1505 1505 1505 1505 1505 1505 1505 1505 1505 1505 1505 1506 1506 1507 1507 1508 1508 1509 1510 1511 1512 1514 1516 1518 1519 1521 1522 1523 1525 1526
1504 1503 1500 1500 1500 1499 1500 1501 1502 1502 1502 1502 1502 1502 1503 1502 1502 1502 1502 1502 1502 1502 1502 1502 1503 1503 1503 1504 1505 1505 1505 1506 1507 1508 1509 1511 1512 1514 1515 1517 1518 1519 1520 1522
1502 1504 1502 1499 1497 1499 1500 1500 1500 1501 1501 1501 1501 1500 1500 1500 1499 1499 1499 1499 1499 1499 1499 1499 1499 1499 1500 1501 1501 1502 1502 1503 1504 1505 1506 1508 1509 1510 1512 1513 1514 1515 1516 1517
1501 1502 1499 1496 1496 1497 1497 1498 1498 1498 1498 1498 1498 1498 1497 1497 1496 1496 1496 1496 1495 1495 1495 1495 1496 1496 1496 1497 1497 1498 1499 1500 1501 1502 1503 1504 1505 1507 1508 1509 1510 1511 1512 1513
1499 1498 1497 1493 1493 1494 1494 1495 1496 1496 1495 1495 1495 1494 1494 1493 1493 1492 1492 1492 1491 1491 1491 1491 1492 1492 1492 1493 1493 1494 1495 1496 1498 1499 1500 1501 1502 1503 1504 1505 1506 1507 1508 1509